GW0531 Weather Reports


time (UTC)temp
F
wind
direction
speed
knots
gust
knots
rain 1hr
in
rain 24hr
in
rain mn
in
humidity
%
barometer
mb
20260509124206 68 209 0.0 0.0 0.00 0.00 0.00 89 1014.5
20260509123704 68 209 0.0 0.0 0.00 0.00 0.00 88 1014.5
20260509123201 68 214 0.0 0.0 0.00 0.00 0.00 88 1014.7
20260509122656 67 293 0.0 0.0 0.00 0.00 0.00 89 1014.6
20260509122153 66 142 0.0 0.0 0.00 0.00 0.00 90 1014.6
20260509121649 66 142 0.0 0.0 0.00 0.00 0.00 91 1014.5
20260509121148 66 217 0.0 0.0 0.00 0.00 0.00 92 1014.6
20260509120646 65 160 0.0 0.0 0.00 0.00 0.00 92 1014.5
20260509120143 65 129 0.0 0.0 0.00 0.00 0.00 93 1014.4
20260509115640 64 129 0.0 0.0 0.00 0.00 0.00 93 1014.8
20260509115138 64 9 0.0 0.0 0.00 0.00 0.00 94 1014.7
20260509114636 64 342 0.0 0.0 0.00 0.00 0.00 94 1014.4
20260509114135 63 293 0.0 0.0 0.00 0.00 0.00 94 1014.6
20260509113633 63 309 0.0 0.0 0.00 0.00 0.00 95 1014.3
20260509113130 63 180 0.0 0.0 0.00 0.00 0.00 95 1014.3
20260509112626 63 180 0.0 0.0 0.00 0.00 0.00 95 1014.3
20260509112124 62 293 0.0 0.0 0.00 0.00 0.00 95 1014.3
20260509111620 62 354 0.0 0.9 0.00 0.00 0.00 95 1014.0
20260509111117 62 309 0.0 0.0 0.00 0.00 0.00 95 1014.0
20260509110614 62 323 0.0 0.9 0.00 0.00 0.00 95 1013.9
20260509110112 62 322 0.0 0.0 0.00 0.00 0.00 95 1013.7
20260509105610 62 335 0.0 0.9 0.00 0.00 0.00 95 1013.7
20260509105107 62 338 0.0 1.7 0.00 0.00 0.00 95 1013.7
20260509104603 61 32 0.0 0.9 0.00 0.00 0.00 94 1013.6
20260509104100 62 322 0.0 0.0 0.00 0.00 0.00 94 1013.5
20260509103558 62 89 0.0 0.0 0.00 0.00 0.00 94 1013.5
20260509103056 62 37 0.0 0.0 0.00 0.00 0.00 94 1013.3
20260509102553 62 50 0.0 0.9 0.00 0.00 0.00 94 1013.3
20260509102050 62 40 1.7 1.7 0.00 0.00 0.00 94 1013.4
20260509101546 62 89 0.0 0.9 0.00 0.00 0.00 94 1013.4
20260509101043 62 65 0.9 0.9 0.00 0.00 0.00 94 1013.4
20260509100540 62 320 0.0 0.9 0.00 0.00 0.00 93 1013.3
20260509100038 62 37 0.0 0.9 0.00 0.00 0.00 93 1013.2
20260509095534 62 50 0.0 0.9 0.00 0.00 0.00 93 1013.3
20260509095032 62 45 0.9 0.9 0.00 0.00 0.00 93 1013.4
20260509094528 62 309 0.0 0.0 0.00 0.00 0.00 93 1013.6
20260509094025 62 309 0.0 0.9 0.00 0.00 0.00 93 1013.6
20260509093523 62 48 0.0 0.9 0.00 0.00 0.00 93 1013.5
20260509093021 62 283 0.0 0.0 0.00 0.00 0.00 93 1013.7
20260509092518 62 283 0.0 0.0 0.00 0.00 0.00 92 1013.6
20260509092017 62 315 0.0 0.9 0.00 0.00 0.00 92 1013.6
20260509091514 62 309 0.0 0.0 0.00 0.00 0.00 92 1013.6
20260509091010 62 326 0.0 0.0 0.00 0.00 0.00 92 1013.6
20260509090508 62 76 0.0 0.9 0.00 0.00 0.00 92 1013.8
20260509090006 62 296 0.0 0.0 0.00 0.00 0.00 92 1014.0
20260509085502 62 309 0.0 0.9 0.00 0.00 0.00 92 1014.0
20260509084958 62 157 0.0 0.0 0.00 0.00 0.00 92 1013.7
20260509084455 62 151 0.0 0.9 0.00 0.00 0.00 92 1013.7
20260509083953 62 142 0.0 0.9 0.00 0.00 0.00 92 1013.8
20260509083450 62 157 0.0 0.9 0.00 0.00 0.00 92 1013.6
20260509082946 62 302 0.0 0.0 0.00 0.00 0.00 92 1013.6
20260509082444 62 309 1.7 1.7 0.00 0.00 0.00 92 1013.4
20260509081941 62 130 0.0 1.7 0.00 0.00 0.00 91 1013.3
20260509081438 62 64 1.7 1.7 0.00 0.00 0.00 91 1013.5
20260509080935 62 89 0.0 0.0 0.00 0.00 0.00 91 1014.1
20260509080433 62 157 0.0 0.9 0.00 0.00 0.00 91 1014.1
20260509075931 62 124 0.0 0.9 0.00 0.00 0.00 91 1014.2
20260509075428 62 315 0.0 0.9 0.00 0.00 0.00 91 1014.2
20260509074926 62 22 0.0 1.7 0.00 0.00 0.00 90 1014.1
20260509074423 62 180 0.0 0.0 0.00 0.00 0.00 90 1014.2
20260509073919 62 202 0.0 0.0 0.00 0.00 0.00 90 1014.2
20260509073416 63 0 0.0 0.9 0.00 0.00 0.00 90 1014.1
20260509072912 63 174 0.0 0.9 0.00 0.00 0.00 90 1013.8
20260509072409 63 61 0.0 0.9 0.00 0.00 0.00 90 1013.8
20260509071905 63 21 0.9 0.9 0.00 0.00 0.00 90 1013.8
20260509071403 63 322 0.0 0.0 0.00 0.00 0.00 90 1013.9
20260509070900 63 304 0.0 0.9 0.00 0.00 0.00 89 1014.0
20260509070356 63 315 0.0 0.0 0.00 0.00 0.00 89 1013.9
20260509065852 63 32 0.0 1.7 0.00 0.00 0.00 89 1014.1
20260509065349 63 49 0.0 0.9 0.00 0.00 0.00 89 1014.1
20260509064844 63 336 0.0 0.9 0.00 0.00 0.00 89 1014.3
20260509064342 63 19 0.0 0.9 0.00 0.00 0.00 89 1014.2
20260509063840 63 293 0.0 0.0 0.00 0.00 0.00 89 1014.5
20260509063336 63 303 0.0 0.9 0.00 0.00 0.00 88 1014.4
20260509062833 63 0 0.0 0.0 0.00 0.00 0.00 88 1014.3
20260509062330 63 45 0.0 0.0 0.00 0.00 0.00 88 1014.5
20260509061827 63 35 0.0 1.7 0.00 0.00 0.00 88 1014.6
20260509061326 63 46 1.7 1.7 0.00 0.00 0.00 87 1014.9
20260509060822 63 6 0.0 0.0 0.00 0.00 0.00 87 1015.5
20260509060319 63 303 1.7 1.7 0.00 0.00 0.00 87 1015.5
20260509055814 63 189 0.0 1.7 0.00 0.00 0.00 87 1015.3
20260509055310 63 174 0.0 0.9 0.00 0.00 0.00 87 1015.1
20260509054807 63 358 0.9 2.6 0.00 0.00 0.00 87 1014.6
20260509054304 63 173 0.0 0.9 0.00 0.00 0.00 87 1015.2
20260509053802 63 37 0.0 0.9 0.00 0.00 0.00 87 1014.9
20260509053259 63 44 0.0 1.7 0.00 0.00 0.00 87 1015.0
20260509052757 63 154 1.7 1.7 0.00 0.00 0.00 86 1015.1
20260509052254 63 32 0.0 0.9 0.00 0.00 0.00 86 1014.9
20260509051752 63 15 1.7 1.7 0.00 0.00 0.00 86 1014.8
20260509051250 63 44 0.0 0.9 0.00 0.00 0.00 86 1015.2
20260509050746 63 72 0.9 0.9 0.00 0.00 0.00 87 1015.7
20260509050242 63 314 1.7 1.7 0.00 0.00 0.00 86 1015.7
20260509045740 63 19 0.9 1.7 0.00 0.00 0.00 86 1015.7
20260509045237 63 293 0.0 0.0 0.00 0.00 0.00 86 1015.8
20260509044734 63 72 0.9 1.7 0.00 0.00 0.00 86 1015.4
20260509044232 63 135 0.0 0.0 0.00 0.00 0.00 86 1015.8
20260509043728 63 136 0.0 0.9 0.00 0.00 0.00 86 1016.2
20260509043224 63 64 0.9 0.9 0.00 0.00 0.00 85 1016.2
20260509042720 63 15 0.0 0.0 0.00 0.00 0.00 85 1016.8
20260509042217 63 352 0.0 0.9 0.00 0.00 0.00 85 1016.6
20260509041714 63 300 1.7 1.7 0.00 0.00 0.00 85 1016.3
20260509041210 63 37 0.0 0.9 0.00 0.00 0.00 85 1016.0
20260509040709 63 43 0.0 0.0 0.00 0.00 0.00 85 1016.0
20260509040205 63 174 0.0 0.9 0.00 0.00 0.00 84 1016.1
20260509035702 63 77 0.0 0.0 0.00 0.00 0.00 84 1016.4
20260509035159 63 83 0.9 1.7 0.00 0.00 0.00 84 1016.5
20260509034656 64 124 0.0 0.0 0.00 0.00 0.00 84 1016.6
20260509034153 64 160 0.0 0.0 0.00 0.00 0.00 83 1016.6
20260509033650 64 38 0.0 0.9 0.00 0.00 0.00 84 1016.6
20260509033147 64 326 0.0 0.0 0.00 0.00 0.00 84 1016.8
20260509032645 64 29 0.0 0.9 0.00 0.00 0.00 83 1016.9
20260509032141 64 309 0.0 0.0 0.00 0.00 0.00 83 1016.9
20260509031639 64 325 0.0 1.7 0.00 0.00 0.00 83 1016.8
20260509031136 64 50 0.0 0.9 0.00 0.00 0.00 83 1016.8
20260509030635 64 24 0.9 1.7 0.00 0.00 0.00 83 1016.8
20260509030132 64 8 0.9 0.9 0.00 0.00 0.00 82 1017.0
20260509025627 64 44 0.0 0.0 0.00 0.00 0.00 82 1017.0
20260509025123 64 44 0.0 0.0 0.00 0.00 0.00 82 1016.9
20260509024619 64 89 0.0 0.9 0.00 0.00 0.00 81 1017.2
20260509024115 64 217 0.0 0.0 0.00 0.00 0.00 81 1016.8
20260509023614 64 37 0.0 0.9 0.00 0.00 0.00 79 1016.7
20260509023110 64 32 0.0 0.9 0.00 0.00 0.00 80 1016.5
20260509022606 64 353 0.0 0.9 0.00 0.00 0.00 80 1016.7
20260509022104 64 86 0.0 0.9 0.00 0.00 0.00 79 1016.6
20260509021601 64 322 0.0 0.9 0.00 0.00 0.00 80 1016.7
20260509021058 65 311 0.9 0.9 0.00 0.00 0.00 79 1016.7
20260509020557 64 307 0.0 1.7 0.00 0.00 0.00 79 1016.6
20260509020053 65 8 0.9 1.7 0.00 0.00 0.00 79 1016.7
20260509015552 65 50 0.0 0.9 0.00 0.00 0.00 79 1016.4
20260509015049 65 44 0.9 0.9 0.00 0.00 0.00 78 1016.4
20260509014545 65 130 0.0 0.0 0.00 0.00 0.00 78 1016.3
20260509014042 65 142 0.0 0.0 0.00 0.00 0.00 78 1016.5
20260509013539 65 129 0.0 0.0 0.00 0.00 0.00 77 1016.5
20260509013034 65 37 0.0 0.9 0.00 0.00 0.00 77 1016.5
20260509012531 65 66 0.0 0.0 0.00 0.00 0.00 76 1016.6
20260509012028 65 326 0.0 0.9 0.00 0.00 0.00 76 1016.5
20260509011526 65 313 0.9 0.9 0.00 0.00 0.00 76 1016.6
20260509011023 65 50 0.0 0.0 0.00 0.00 0.00 76 1016.3
20260509010521 66 326 0.0 0.9 0.00 0.00 0.00 76 1016.4
20260509010017 66 37 0.0 0.0 0.00 0.00 0.00 75 1016.2
20260509005515 66 89 0.0 1.7 0.00 0.00 0.00 75 1016.2
20260509005015 66 309 0.0 0.0 0.00 0.00 0.00 74 1016.3
20260509004512 66 32 0.0 0.9 0.00 0.00 0.00 74 1016.2
20260509004009 66 233 0.0 0.0 0.00 0.00 0.00 74 1016.1
20260509003508 66 217 0.0 0.9 0.00 0.00 0.00 74 1016.1
20260509003004 66 72 0.0 0.9 0.00 0.00 0.00 73 1015.8
20260509002502 66 58 1.7 1.7 0.00 0.00 0.00 72 1015.8
20260509001959 66 322 0.0 0.9 0.00 0.00 0.00 72 1015.8
20260509001455 66 78 0.9 1.7 0.00 0.00 0.00 71 1015.9
20260509000952 66 81 0.0 1.7 0.00 0.00 0.00 71 1015.9
20260509000451 67 63 0.9 1.7 0.00 0.00 0.00 70 1015.9
20260508235946 67 103 0.9 1.7 0.00 0.00 0.00 70 1015.7
20260508235444 67 38 0.0 0.9 0.00 0.00 0.00 69 1015.8
20260508234940 67 58 0.0 1.7 0.00 0.00 0.00 68 1015.7
20260508234437 67 76 0.0 1.7 0.00 0.00 0.00 69 1015.6
20260508233935 67 110 0.0 0.9 0.00 0.00 0.00 68 1015.3
20260508233434 68 94 1.7 4.3 0.00 0.00 0.00 67 1015.4
20260508232930 68 63 0.0 1.7 0.00 0.00 0.00 68 1015.4
20260508232428 68 329 1.7 1.7 0.00 0.00 0.00 68 1015.5
20260508231925 68 190 0.0 2.6 0.00 0.00 0.00 68 1015.5
20260508231422 68 42 1.7 1.7 0.00 0.00 0.00 68 1015.4
20260508230919 68 96 0.9 1.7 0.00 0.00 0.00 69 1015.6
20260508230415 68 120 1.7 1.7 0.00 0.00 0.00 68 1015.7
20260508225912 68 180 0.9 0.9 0.00 0.00 0.00 69 1015.7
20260508225409 68 129 0.0 2.6 0.00 0.00 0.00 67 1015.6
20260508224907 69 85 0.9 2.6 0.00 0.00 0.00 67 1015.8
20260508224404 69 55 0.0 1.7 0.00 0.00 0.00 67 1015.7
20260508223902 69 138 1.7 1.7 0.00 0.00 0.00 68 1015.5
20260508223359 69 44 0.0 1.7 0.00 0.00 0.00 67 1015.2
20260508222856 69 121 0.0 3.5 0.00 0.00 0.00 67 1015.6
20260508222353 69 147 0.0 1.7 0.00 0.00 0.00 67 1015.5
20260508221850 69 248 1.7 2.6 0.00 0.00 0.00 67 1015.4
20260508221345 69 352 2.6 2.6 0.00 0.00 0.00 65 1015.4
20260508220842 69 123 0.9 3.5 0.00 0.00 0.00 65 1015.5
20260508220338 69 144 0.9 4.3 0.00 0.00 0.00 65 1015.5
20260508215835 70 258 2.6 3.5 0.00 0.00 0.00 65 1015.6
20260508215332 70 106 1.7 3.5 0.00 0.00 0.00 64 1015.5
20260508214829 70 120 1.7 1.7 0.00 0.00 0.00 65 1015.4
20260508214326 71 143 0.0 2.6 0.00 0.00 0.00 64 1015.3
20260508213822 71 146 0.0 1.7 0.00 0.00 0.00 63 1015.5
20260508213319 71 334 1.7 1.7 0.00 0.00 0.00 63 1015.6
20260508212815 71 125 1.7 2.6 0.00 0.00 0.00 62 1015.5
20260508212312 72 76 4.3 5.2 0.00 0.00 0.00 61 1015.7
20260508211808 72 136 1.7 1.7 0.00 0.00 0.00 62 1015.6
20260508211303 72 206 0.9 3.5 0.00 0.00 0.00 61 1015.8
20260508210802 72 171 2.6 2.6 0.00 0.00 0.00 61 1015.6
20260508210258 73 195 1.7 3.5 0.00 0.00 0.00 59 1015.5
20260508205755 73 148 3.5 3.5 0.00 0.00 0.00 59 1015.4
20260508205251 73 120 0.0 7.0 0.00 0.00 0.00 58 1015.5
20260508204748 75 92 3.5 5.2 0.00 0.00 0.00 55 1015.3
20260508204244 75 167 0.9 6.1 0.00 0.00 0.00 56 1015.0
20260508203740 75 70 2.6 3.5 0.00 0.00 0.00 55 1015.1
20260508203237 75 106 2.6 3.5 0.00 0.00 0.00 56 1015.3
20260508202732 74 259 1.7 4.3 0.00 0.00 0.00 58 1015.4
20260508202230 74 149 0.9 4.3 0.00 0.00 0.00 57 1015.2
20260508201727 75 138 1.7 5.2 0.00 0.00 0.00 56 1015.2
20260508201223 75 137 2.6 4.3 0.00 0.00 0.00 56 1015.0
20260508200720 78 115 3.5 5.2 0.00 0.00 0.00 50 1015.2
20260508200216 79 149 1.7 1.7 0.00 0.00 0.00 44 1015.5
20260508195713 78 273 1.7 3.5 0.00 0.00 0.00 45 1015.5
20260508195209 78 306 0.0 1.7 0.00 0.00 0.00 43 1015.5
20260508194706 78 20 2.6 2.6 0.00 0.00 0.00 44 1015.6
20260508194203 78 315 2.6 4.3 0.00 0.00 0.00 45 1015.6
20260508193700 78 120 0.9 3.5 0.00 0.00 0.00 42 1015.9
20260508193157 78 261 1.7 3.5 0.00 0.00 0.00 44 1016.0
20260508192653 78 121 3.5 3.5 0.00 0.00 0.00 43 1015.9
20260508192151 77 345 1.7 2.6 0.00 0.00 0.00 47 1015.9
20260508191648 77 246 0.9 3.5 0.00 0.00 0.00 44 1015.8
20260508191144 77 279 0.9 5.2 0.00 0.00 0.00 45 1015.9
20260508190641 77 0 1.7 3.5 0.00 0.00 0.00 46 1016.0
20260508190138 78 1 3.5 3.5 0.00 0.00 0.00 44 1016.1
20260508185635 77 233 4.3 4.3 0.00 0.00 0.00 44 1016.2
20260508185132 77 251 0.9 3.5 0.00 0.00 0.00 43 1015.9
20260508184629 78 358 2.6 3.5 0.00 0.00 0.00 43 1016.2
20260508184126 78 329 1.7 3.5 0.00 0.00 0.00 44 1016.3
20260508183623 77 263 1.7 3.5 0.00 0.00 0.00 46 1016.3
20260508183119 76 129 0.0 2.6 0.00 0.00 0.00 45 1016.3
20260508182615 77 172 0.9 3.5 0.00 0.00 0.00 44 1016.5
20260508182112 77 218 1.7 5.2 0.00 0.00 0.00 43 1016.3
20260508181607 77 331 2.6 3.5 0.00 0.00 0.00 44 1016.6
20260508181105 77 21 1.7 1.7 0.00 0.00 0.00 46 1016.6
20260508180601 76 269 0.0 2.6 0.00 0.00 0.00 45 1016.6
20260508180058 77 116 4.3 5.2 0.00 0.00 0.00 43 1016.6
20260508175554 78 346 2.6 2.6 0.00 0.00 0.00 43 1016.7
20260508175052 76 188 0.9 3.5 0.00 0.00 0.00 44 1016.9
20260508174549 76 191 0.9 1.7 0.00 0.00 0.00 44 1016.9
20260508174046 75 150 0.0 3.5 0.00 0.00 0.00 44 1016.8
20260508173543 76 54 3.5 3.5 0.00 0.00 0.00 44 1017.0
20260508173039 75 286 1.7 3.5 0.00 0.00 0.00 44 1017.3
20260508172536 75 308 2.6 5.2 0.00 0.00 0.00 44 1017.0
20260508172033 76 244 3.5 3.5 0.00 0.00 0.00 44 1017.1
20260508171529 76 288 2.6 4.3 0.00 0.00 0.00 45 1017.2
20260508171026 75 62 0.0 1.7 0.00 0.00 0.00 44 1017.3
20260508170523 75 216 1.7 3.5 0.00 0.00 0.00 42 1017.5
20260508170020 75 223 1.7 4.3 0.00 0.00 0.00 46 1017.6
20260508165518 76 191 1.7 3.5 0.00 0.00 0.00 44 1017.4
20260508165014 74 307 0.0 3.5 0.00 0.00 0.00 46 1017.4
20260508164511 75 35 1.7 3.5 0.00 0.00 0.00 44 1017.6
20260508164007 74 117 0.0 2.6 0.00 0.00 0.00 44 1017.4
20260508163505 74 115 1.7 3.5 0.00 0.00 0.00 45 1017.7
20260508163001 74 125 2.6 4.3 0.00 0.00 0.00 44 1017.6
20260508162458 75 349 2.6 3.5 0.00 0.00 0.00 46 1017.7
20260508161955 74 331 1.7 3.5 0.00 0.00 0.00 49 1017.8
20260508161452 73 1 0.9 3.5 0.00 0.00 0.00 46 1018.1
20260508160949 74 102 3.5 7.0 0.00 0.00 0.00 46 1017.8
20260508160448 73 82 0.0 4.3 0.00 0.00 0.00 46 1018.1
20260508155944 72 98 3.5 4.3 0.00 0.00 0.00 47 1018.4
20260508155441 73 292 3.5 3.5 0.00 0.00 0.00 47 1018.4
20260508154938 72 28 0.0 2.6 0.00 0.00 0.00 50 1018.6
20260508154436 72 109 3.5 6.1 0.00 0.00 0.00 48 1018.4
20260508153932 72 90 1.7 5.2 0.00 0.00 0.00 50 1018.8
20260508153429 72 83 1.7 5.2 0.00 0.00 0.00 48 1018.4
20260508152925 73 14 1.7 5.2 0.00 0.00 0.00 48 1018.4
20260508152422 72 309 0.9 3.5 0.00 0.00 0.00 49 1018.7
20260508151919 72 40 3.5 4.3 0.00 0.00 0.00 47 1018.7
20260508151415 72 22 1.7 7.0 0.00 0.00 0.00 50 1018.6
20260508150912 72 323 3.5 3.5 0.00 0.00 0.00 49 1018.6
20260508150408 71 214 1.7 1.7 0.00 0.00 0.00 53 1018.5
20260508145905 71 235 1.7 4.3 0.00 0.00 0.00 53 1018.6
20260508145401 71 262 1.7 3.5 0.00 0.00 0.00 53 1018.6
20260508144858 71 118 1.7 4.3 0.00 0.00 0.00 52 1018.7
20260508144356 69 39 3.5 5.2 0.00 0.00 0.00 54 1018.7
20260508143853 70 34 3.5 5.2 0.00 0.00 0.00 54 1018.5
20260508143350 69 122 1.7 8.7 0.00 0.00 0.00 53 1018.4
20260508142847 70 78 3.5 5.2 0.00 0.00 0.00 54 1018.4
20260508142344 70 16 4.3 5.2 0.00 0.00 0.00 54 1018.4
20260508141840 69 352 1.7 2.6 0.00 0.00 0.00 59 1018.2
20260508141337 68 50 0.0 3.5 0.00 0.00 0.00 57 1018.3
20260508140835 68 316 1.7 3.5 0.00 0.00 0.00 59 1018.4
20260508140331 67 306 1.7 3.5 0.00 0.00 0.00 59 1018.3
20260508135827 66 98 3.5 7.8 0.00 0.00 0.00 62 1018.0
20260508135324 67 291 1.7 5.2 0.00 0.00 0.00 63 1018.1
20260508134820 67 302 1.7 3.5 0.00 0.00 0.00 63 1018.2
20260508134317 66 314 1.7 1.7 0.00 0.00 0.00 67 1018.2
20260508133813 65 335 1.7 2.6 0.00 0.00 0.00 65 1018.3
20260508133311 65 14 2.6 4.3 0.00 0.00 0.00 68 1018.0
20260508132808 64 256 0.9 2.6 0.00 0.00 0.00 70 1017.9
20260508132306 64 287 1.7 3.5 0.00 0.00 0.00 71 1018.0
20260508131802 64 52 3.5 7.0 0.00 0.00 0.00 73 1017.9
20260508131258 62 273 0.9 2.6 0.00 0.00 0.00 74 1017.9
20260508130754 62 130 0.0 3.5 0.00 0.00 0.00 75 1017.9
20260508130252 62 149 3.5 3.5 0.00 0.00 0.00 77 1017.9
20260508125747 62 65 0.0 3.5 0.00 0.00 0.00 77 1017.9
20260508125244 62 317 0.9 2.6 0.00 0.00 0.00 80 1017.7
20260508124742 62 356 2.6 4.3 0.00 0.00 0.00 80 1017.8
20260508124239 61 353 0.0 1.7 0.00 0.00 0.00 81 1017.8